Brunswick, GA

9:53 AM EST on January 22, 2018 (GMT -0500)
Glynco Jetport

Weather History for KBQK - November, 2012

Change the Weather History Date:

Thursday, November 29, 2012

  Actual Average Record
Temperature  
Mean Temperature 56 °F -  
Max Temperature 68 °F 71 °F 82 °F (1985)
Min Temperature 44 °F 50 °F 29 °F (1955)
Degree Days  
Heating Degree Days 9    
Growing Degree Days 6 (Base 50)    
Moisture  
Dew Point 52 °F    
Average Humidity 82    
Maximum Humidity 100    
Minimum Humidity 60    
Precipitation  
Precipitation 0.00 in - - ()
Sea Level Pressure  
Sea Level Pressure 30.37 in    
Wind  
Wind Speed 6 mph (NNE)    
Max Wind Speed 13 mph    
Max Gust Speed 20 mph    
Visibility 9 miles    
Events      
Averages and records for this station are not official NWS values.
T = Trace of Precipitation, MM = Missing Value Source: NWS Daily Summary

Daily Weather History Graph

Daily Weather History Graph

Search for Another Location

Airport or City:

Trip Planner

Search our weather history database for the weather conditions in past years. The results will help you decide how hot, cold, wet, or windy it might be!

Date:

Astronomy

Nov. 29, 2012 Rise Set
Actual Time 7:05 AM EST 5:23 PM EST
Civil Twilight 6:39 AM EST 5:49 PM EST
Nautical Twilight 6:09 AM EST 6:19 PM EST
Astronomical Twilight 5:40 AM EST 6:48 PM EST
Moon 6:25 PM EST (11/29) 7:50 AM EST (11/29)
Length of Visible Light 11h 10m
Length of Day
10h 17m
Full, 99% of the Moon is Illuminated
Nov 29
Full
Dec 6
Last Quarter
Dec 13
New
Dec 20
First Quarter
Dec 28
Full

Hourly Weather History & Observations

Time (EST) Temp. Windchill Dew Point Humidity Pressure Visibility Wind Dir Wind Speed Gust Speed Precip Events Conditions
12:15 AM 44.6 °F - 44.6 °F 100% 30.37 in 0.5 mi Calm Calm - N/A   Unknown
12:35 AM 46.4 °F 45.2 °F 46.4 °F 100% 30.37 in 4.0 mi North 3.5 mph - N/A   Clear
12:55 AM 48.2 °F - 46.4 °F 93% 30.37 in 7.0 mi North 3.5 mph - N/A   Clear
1:15 AM 48.2 °F - 46.4 °F 93% 30.36 in 7.0 mi North 3.5 mph - N/A   Clear
1:35 AM 50.0 °F - 48.2 °F 94% 30.36 in 7.0 mi North 4.6 mph - N/A   Clear
1:55 AM 50.0 °F - 48.2 °F 94% 30.36 in 7.0 mi North 5.8 mph - N/A   Clear
2:15 AM 50.0 °F - 48.2 °F 94% 30.35 in 7.0 mi North 5.8 mph - N/A   Clear
2:35 AM 50.0 °F - 48.2 °F 94% 30.35 in 7.0 mi North 6.9 mph - N/A   Clear
2:55 AM 50.0 °F - 48.2 °F 94% 30.35 in 7.0 mi NNE 4.6 mph - N/A   Clear
3:15 AM 50.0 °F - 48.2 °F 94% 30.35 in 7.0 mi NNE 5.8 mph - N/A   Clear
3:35 AM 50.0 °F - 50.0 °F 100% 30.35 in 7.0 mi NNE 4.6 mph - N/A   Clear
3:55 AM 50.0 °F - 50.0 °F 100% 30.35 in 10.0 mi NNE 4.6 mph - N/A   Clear
4:15 AM 50.0 °F - 48.2 °F 94% 30.35 in 10.0 mi NNE 4.6 mph - N/A   Clear
4:35 AM 50.0 °F - 46.4 °F 87% 30.35 in 10.0 mi NNE 3.5 mph - N/A   Clear
4:55 AM 50.0 °F - 46.4 °F 87% 30.34 in 10.0 mi NNE 5.8 mph - N/A   Clear
5:15 AM 50.0 °F - 46.4 °F 87% 30.35 in 10.0 mi NNE 6.9 mph - N/A   Clear
5:35 AM 50.0 °F - 46.4 °F 87% 30.35 in 10.0 mi NNE 6.9 mph - N/A   Clear
5:55 AM 50.0 °F - 46.4 °F 87% 30.36 in 10.0 mi NNE 5.8 mph - N/A   Clear
6:15 AM 50.0 °F - 46.4 °F 87% 30.36 in 10.0 mi NNE 5.8 mph - N/A   Clear
6:35 AM 50.0 °F - 46.4 °F 87% 30.36 in 10.0 mi NNE 6.9 mph - N/A   Clear
6:55 AM 50.0 °F - 46.4 °F 87% 30.36 in 10.0 mi NNE 4.6 mph - N/A   Clear
7:15 AM 50.0 °F - 46.4 °F 87% 30.37 in 10.0 mi NNE 6.9 mph - N/A   Clear
7:35 AM 51.8 °F - 48.2 °F 88% 30.37 in 10.0 mi NNE 6.9 mph - N/A   Clear
7:55 AM 51.8 °F - 50.0 °F 94% 30.38 in 10.0 mi NNE 4.6 mph - N/A   Clear
8:15 AM 53.6 °F - 50.0 °F 88% 30.39 in 10.0 mi NNE 4.6 mph - N/A   Clear
8:35 AM 53.6 °F - 50.0 °F 88% 30.39 in 10.0 mi NNE 4.6 mph - N/A   Clear
8:55 AM 55.4 °F - 51.8 °F 88% 30.40 in 10.0 mi NE 6.9 mph - N/A   Clear
9:15 AM 59.0 °F - 53.6 °F 82% 30.40 in 10.0 mi NE 8.1 mph - N/A   Clear
9:35 AM 59.0 °F - 53.6 °F 82% 30.41 in 10.0 mi NE 9.2 mph - N/A   Clear
9:55 AM 60.8 °F - 53.6 °F 77% 30.41 in 10.0 mi NNE 9.2 mph - N/A   Clear
10:15 AM 62.6 °F - 53.6 °F 72% 30.41 in 10.0 mi NE 10.4 mph - N/A   Clear
10:35 AM 62.6 °F - 53.6 °F 72% 30.41 in 10.0 mi NE 10.4 mph - N/A   Clear
10:55 AM 64.4 °F - 53.6 °F 68% 30.40 in 10.0 mi NNE 9.2 mph 18.4 mph N/A   Clear
11:15 AM 64.4 °F - 53.6 °F 68% 30.41 in 10.0 mi NE 11.5 mph - N/A   Clear
11:35 AM 64.4 °F - 53.6 °F 68% 30.41 in 10.0 mi NE 11.5 mph - N/A   Clear
11:55 AM 66.2 °F - 53.6 °F 64% 30.40 in 10.0 mi NE 11.5 mph - N/A   Clear
12:15 PM 66.2 °F - 53.6 °F 64% 30.39 in 10.0 mi NE 12.7 mph 17.3 mph N/A   Clear
12:35 PM 66.2 °F - 53.6 °F 64% 30.39 in 10.0 mi NE 10.4 mph 19.6 mph N/A   Clear
12:55 PM 68.0 °F - 53.6 °F 60% 30.38 in 10.0 mi NE 11.5 mph - N/A   Clear
1:15 PM 68.0 °F - 53.6 °F 60% 30.37 in 10.0 mi NE 10.4 mph - N/A   Clear
1:35 PM 68.0 °F - 53.6 °F 60% 30.37 in 10.0 mi NE 10.4 mph - N/A   Clear
1:55 PM 68.0 °F - 53.6 °F 60% 30.36 in 10.0 mi ENE 10.4 mph - N/A   Clear
2:15 PM 68.0 °F - 53.6 °F 60% 30.35 in 10.0 mi NE 12.7 mph - N/A   Clear
2:35 PM 68.0 °F - 53.6 °F 60% 30.35 in 10.0 mi NE 12.7 mph 16.1 mph N/A   Clear
2:55 PM 66.2 °F - 53.6 °F 64% 30.34 in 10.0 mi NE 11.5 mph 16.1 mph N/A   Clear
3:15 PM 64.4 °F - 53.6 °F 68% 30.35 in 10.0 mi NE 9.2 mph - N/A   Clear
3:35 PM 64.4 °F - 53.6 °F 68% 30.35 in 10.0 mi NNE 10.4 mph 18.4 mph N/A   Clear
3:55 PM 64.4 °F - 53.6 °F 68% 30.35 in 10.0 mi NE 8.1 mph - N/A   Clear
4:15 PM 62.6 °F - 53.6 °F 72% 30.35 in 10.0 mi NNE 10.4 mph - N/A   Clear
4:35 PM 62.6 °F - 53.6 °F 72% 30.35 in 10.0 mi NNE 6.9 mph 16.1 mph N/A   Clear
4:55 PM 62.6 °F - 53.6 °F 72% 30.36 in 10.0 mi NE 6.9 mph - N/A   Clear
5:15 PM 60.8 °F - 53.6 °F 77% 30.35 in 10.0 mi NE 5.8 mph - N/A   Clear
5:35 PM 59.0 °F - 53.6 °F 82% 30.35 in 10.0 mi NE 5.8 mph - N/A   Scattered Clouds
5:55 PM 59.0 °F - 53.6 °F 82% 30.35 in 10.0 mi NE 6.9 mph - N/A   Scattered Clouds
6:15 PM 59.0 °F - 53.6 °F 82% 30.35 in 10.0 mi NE 5.8 mph - N/A   Clear
6:35 PM 59.0 °F - 53.6 °F 82% 30.35 in 10.0 mi NE 5.8 mph - N/A   Clear
6:55 PM 59.0 °F - 53.6 °F 82% 30.35 in 10.0 mi NE 4.6 mph - N/A   Clear
7:15 PM 57.2 °F - 53.6 °F 88% 30.35 in 10.0 mi NE 4.6 mph - N/A   Clear
7:35 PM 57.2 °F - 53.6 °F 88% 30.36 in 10.0 mi NE 3.5 mph - N/A   Clear
7:55 PM 57.2 °F - 53.6 °F 88% 30.35 in 10.0 mi NNE 4.6 mph - N/A   Clear
8:15 PM 57.2 °F - 53.6 °F 88% 30.36 in 10.0 mi NE 4.6 mph - N/A   Clear
8:35 PM 57.2 °F - 53.6 °F 88% 30.36 in 10.0 mi NE 4.6 mph - N/A   Clear
8:55 PM 57.2 °F - 53.6 °F 88% 30.36 in 10.0 mi NE 4.6 mph - N/A   Clear
9:15 PM 57.2 °F - 53.6 °F 88% 30.36 in 10.0 mi NE 3.5 mph - N/A   Clear
9:35 PM 57.2 °F - 53.6 °F 88% 30.37 in 10.0 mi NNE 3.5 mph - N/A   Scattered Clouds
9:55 PM 57.2 °F - 55.4 °F 94% 30.37 in 10.0 mi NE 3.5 mph - N/A   Mostly Cloudy
10:15 PM 59.0 °F - 55.4 °F 88% 30.36 in 10.0 mi NNE 3.5 mph - N/A   Overcast
10:35 PM 59.0 °F - 55.4 °F 88% 30.36 in 10.0 mi NE 4.6 mph - N/A   Mostly Cloudy
10:55 PM 59.0 °F - 55.4 °F 88% 30.36 in 10.0 mi NE 4.6 mph - N/A   Scattered Clouds
11:15 PM 59.0 °F - 55.4 °F 88% 30.35 in 10.0 mi NE 4.6 mph - N/A   Scattered Clouds
11:35 PM 59.0 °F - 55.4 °F 88% 30.35 in 10.0 mi NNE 4.6 mph - N/A   Mostly Cloudy
11:55 PM 59.0 °F - 55.4 °F 88% 30.35 in 10.0 mi NE 4.6 mph - N/A   Mostly Cloudy